Regional Weather Roundup
Issued by NWS

Home | Current Version | Previous Version | Graphics & Text | Print | Product List | Glossary On
Versions: 1 2 3 4 5 6 7 8 9 10 11 12 13 14 15 16 17 18 19 20 21 22 23 24 25 26 27 28 29 30 31 32 33 34 35 36 37 38 39 40 41 42 43 44 45 46 47 48 49 50
000
ASUS43 KFSD 191502
RWRSD

WEATHER ROUNDUP FOR SOUTH DAKOTA
NATIONAL WEATHER SERVICE SIOUX FALLS SD
1000 AM CDT THU APR 19 2018

NOTE: "FAIR" INDICATES FEW OR NO CLOUDS BELOW 12,000 FEET WITH NO
SIGNIFICANT WEATHER AND/OR OBSTRUCTIONS TO VISIBILITY.


SDZ001>005-009-010-012>017-191600-
NORTHWEST AND NORTH CENTRAL SOUTH DAKOTA

CITY           SKY/WX    TMP DP  RH WIND       PRES   REMARKS
BUFFALO          N/A     46  36  68 SE9G20    30.27S
FAITH            N/A     41  37  86 SE13      30.38R
MOBRIDGE       MOSUNNY   41  31  67 CALM      30.40R
$$

SDZ012>016-024>037-041>051-057-063-072>074-191600-
SOUTHWEST AND SOUTH CENTRAL SOUTH DAKOTA

CITY           SKY/WX    TMP DP  RH WIND       PRES   REMARKS
RAPID CTY ARPT SUNNY     42  37  82 SE9       30.34F
PIERRE         MOSUNNY   37  32  82 CALM      30.43R
CUSTER         SUNNY     39  24  55 VRB7      30.31S
ELLSWORTH AFB  SUNNY     45  38  78 S15       30.33F
PHILIP         SUNNY     39  36  89 SE3       30.41S
PINE RIDGE     SUNNY     46  36  68 S6        30.36S
SPEARFISH      FAIR      46  28  49 CALM      30.29F
WINNER         FAIR      37  28  70 CALM      30.45R
$$

SDZ004>011-016>023-039-040-191600-
NORTHEAST SOUTH DAKOTA

CITY           SKY/WX    TMP DP  RH WIND       PRES   REMARKS
ABERDEEN       SUNNY     46  32  58 SW5       30.45R
WATERTOWN      SUNNY     41  30  65 SW5       30.43R
BROOKINGS      SUNNY     40  23  50 SE5       30.45
SISSETON         N/A     46  33  60 VRB3      30.43R
$$

SDZ017-020-022-023-036>040-048>070-191600-
SOUTHEAST SOUTH DAKOTA

CITY           SKY/WX    TMP DP  RH WIND       PRES   REMARKS
SIOUX FALLS    MOSUNNY   37  26  64 E3        30.46R
HURON          SUNNY     36  32  85 SW5       30.46R
CHAMBERLAIN    MOSUNNY   37  34  90 CALM      30.46R
MITCHELL       SUNNY     33  31  92 CALM      30.48R
YANKTON        SUNNY     38  26  62 SE7       30.48R
$$

ABBREVIATIONS USED IN REMARKS
   TC - TEMPERATURE IN CELSIUS
  WCI - WIND CHILL INDEX
   HX - HEAT INDEX
  VSB - VISIBILITY





USA.gov is the U.S. government's official web portal to all federal, state and local government web resources and services.